TimeIST,TemperatureF,Dew PointF,Humidity,Sea Level PressureIn,VisibilityMPH,Wind Direction,Wind SpeedMPH,Gust SpeedMPH,PrecipitationIn,Events,Conditions,WindDirDegrees,DateUTC
1:10 AM,78.8,73.4,83,29.86,3.1,WNW,3.5,-,N/A,,Haze,290,2012-10-06 19:40:00
2:30 AM,75,72,89,29.84,2,WNW,2.3,,,,Haze,290,2012-10-06 21:00:00
3:10 AM,78.8,73.4,83,29.86,2.5,Calm,Calm,-,N/A,,Haze,0,2012-10-06 21:40:00
4:10 AM,77.0,73.4,89,29.86,1.9,Calm,Calm,-,N/A,,Haze,0,2012-10-06 22:40:00
5:10 AM,77.0,73.4,89,29.86,1.9,Calm,Calm,-,N/A,,Haze,0,2012-10-06 23:40:00
5:30 AM,73,71,92,29.86,1,Calm,Calm,,,,Haze,,2012-10-07 00:00:00
6:10 AM,77.0,73.4,89,29.89,1.2,Calm,Calm,-,N/A,,Haze,0,2012-10-07 00:40:00
7:10 AM,77.0,73.4,89,29.89,1.2,Calm,Calm,-,N/A,,Haze,0,2012-10-07 01:40:00
8:10 AM,84.2,78.8,84,29.92,1.9,ENE,2.3,-,N/A,,Haze,60,2012-10-07 02:40:00
8:30 AM,82,75,73,29.89,1,North,2.3,,,,Haze,0,2012-10-07 03:00:00
10:10 AM,89.6,77.0,66,29.95,3.7,NNE,2.3,-,N/A,,Unknown,30,2012-10-07 04:40:00
11:10 AM,91.4,77.0,63,29.92,3.7,ENE,3.5,-,N/A,,Unknown,60,2012-10-07 05:40:00
11:30 AM,90,74,50,29.85,2,NW,2.3,,,,Scattered Clouds,320,2012-10-07 06:00:00
12:10 PM,95.0,77.0,56,29.89,3.7,NE,3.5,-,N/A,,Partly Cloudy,50,2012-10-07 06:40:00
1:10 PM,96.8,73.4,47,29.86,3.7,West,3.5,-,N/A,,Scattered Clouds,280,2012-10-07 07:40:00
2:10 PM,98.6,73.4,44,29.83,3.7,SW,3.5,-,N/A,,Scattered Clouds,220,2012-10-07 08:40:00
2:30 PM,91,74,48,29.77,2,ESE,3.5,,,,Partly Cloudy,110,2012-10-07 09:00:00
3:10 PM,95.0,75.2,53,29.83,3.7,SSE,4.6,-,N/A,,Scattered Clouds,160,2012-10-07 09:40:00
3:40 PM,95.0,73.4,49,29.80,3.7,SE,3.5,-,N/A,,Scattered Clouds,140,2012-10-07 10:10:00
4:10 PM,95.0,71.6,47,29.80,3.7,ESE,3.5,-,N/A,,Scattered Clouds,120,2012-10-07 10:40:00
5:30 PM,84,76,72,29.78,2,ESE,2.3,,,,Scattered Clouds,110,2012-10-07 12:00:00
6:10 PM,89.6,77.0,66,29.83,3.7,SSE,2.3,-,N/A,,Scattered Clouds,160,2012-10-07 12:40:00
7:10 PM,84.2,71.6,66,29.83,3.7,South,2.3,-,N/A,,Partly Cloudy,190,2012-10-07 13:40:00
8:10 PM,80.6,69.8,70,29.86,3.7,SW,2.3,-,N/A,,Partly Cloudy,230,2012-10-07 14:40:00
8:30 PM,75,71,85,29.85,2,Calm,Calm,,,,Scattered Clouds,,2012-10-07 15:00:00
9:10 PM,80.6,80.6,100,29.89,3.7,Calm,Calm,-,N/A,,Partly Cloudy,0,2012-10-07 15:40:00
10:10 PM,80.6,71.6,74,29.89,3.7,Calm,Calm,-,N/A,,Unknown,0,2012-10-07 16:40:00
11:10 PM,-9999,-9999,N/A,29.86,3.7,Calm,Calm,-,N/A,,Clear,0,2012-10-07 17:40:00
11:30 PM,73,70,89,29.85,2,NW,2.3,,,,,320,2012-10-07 18:00:00